Regional Weather Roundup
Issued by NWS Sterling, VA

Home | Current Version | Previous Version | Graphics & Text | Print | Product List | Glossary On
Versions: 1 2 3 4 5 6 7 8 9 10 11 12 13 14 15 16 17 18 19 20 21 22 23 24 25 26 27
000
ASUS41 KLWX 231411
RWRLWX

REGIONAL WEATHER ROUNDUP
NATIONAL WEATHER SERVICE BALTIMORE MD/WASHINGTON DC
1000 AM EDT SAT SEP 23 2017

Note: "FAIR" indicates few or no clouds below 12,000 feet
with no significant weather and/or obstructions to visibility.
 TC=TEMPERATURE CELSIUS

 * =Non NWS site. Station does not report precipitation (e.g. rain,
    snow, etc.), thunder, or fog.

DCZ001-MDZ009-015-VAZ040>042-051-053>054-231500-
WASHINGTON METRO

CITY           SKY/WX    TMP DP  RH WIND       PRES   REMARKS
WASHINGTON NAT MOSUNNY   76  60  57 N5        30.10R
DULLES         MOSUNNY   73  57  57 NW6       30.11S
ANDREWS AFB    SUNNY     75  57  53 N7        30.09R
FT BELVOIR     SUNNY     76  58  53 NW6       30.10R
QUANTICO       SUNNY     76  63  64 W3        30.11R
COLLEGE PARK*  MOSUNNY   73  58  60 N3        30.09S
LEESBURG*      PTSUNNY   73  63  68 N5        30.13R
MANASSAS*      SUNNY     75  60  59 NE5       30.11S
GAITHERSBURG*  PTSUNNY   71  61  70 NW5       30.13R

$$

MDZ006>007-011-014-231500-
BALTIMORE METRO

CITY           SKY/WX    TMP DP  RH WIND       PRES   REMARKS
BWI AIRPORT    MOSUNNY   71  60  68 NW5       30.09R
MD SCIENCE CTR   N/A     76  56  49 MISG      30.10R
MARTIN STATE   MOSUNNY   75  63  64 NW6       30.10R
ANNAPOLIS      MOSUNNY   76  63  64 NW7       30.08R
FORT MEADE*    MOSUNNY   73  59  60 CALM      30.12R

$$

MDZ012-015-019>023-231500-
MARYLAND EASTERN SHORE

CITY           SKY/WX    TMP DP  RH WIND       PRES   REMARKS
OCEAN CITY     SUNNY     76  65  68 N8        30.04R
SALISBURY      SUNNY     75  64  68 N6        30.05R
CAMBRIDGE*     SUNNY     73  59  60 N8        30.07R
EASTON*        SUNNY     77  59  53 N7        30.11R

$$

MDZ017>025-231500-
SOUTHERN MARYLAND

CITY           SKY/WX    TMP DP  RH WIND       PRES   REMARKS
PATUXENT RIVER MOSUNNY   77  59  53 N8        30.07R
ST INIGOES     SUNNY     77  61  57 N7        30.06R
LEONARDTOWN*   SUNNY     72  63  73 N3        30.09S

$$

MDZ003>005-231500-
NORTH CENTRAL MARYLAND

CITY           SKY/WX    TMP DP  RH WIND       PRES   REMARKS
FREDERICK*     SUNNY     70  63  78 CALM      30.15R
HAGERSTOWN APT SUNNY     70  59  68 CALM      30.14R
WESTMINSTER*   SUNNY     70  59  68 N3        30.13S

$$

MDZ501>502-231500-
WESTERN MARYLAND

CITY           SKY/WX    TMP DP  RH WIND       PRES   REMARKS
OAKLAND*       SUNNY     64  48  55 CALM      30.20R
CUMBERLAND*    MOSUNNY   64  55  72 N3        30.20S

$$

VAZ025>031-231500-
SHENANDOAH VALLEY

CITY           SKY/WX    TMP DP  RH WIND       PRES   REMARKS
WINCHESTER*    PTSUNNY   64  59  82 CALM      30.15R
FRONT ROYAL*   MOSUNNY   68  61  77 MISG      30.14R
LURAY*         SUNNY     66  61  82 CALM      30.15F
NEW MARKET*    SUNNY     70  58  66 CALM      30.15S
STAUNTON*      FOG       60  60 100 CALM      30.19R VSB 1
WAYNESBORO*    SUNNY     67  64  90 CALM      30.17R

$$

WVZ021-048>050-054>055-231500-
EASTERN WEST VIRGINIA PANHANDLE

CITY           SKY/WX    TMP DP  RH WIND       PRES   REMARKS
MARTINSBURG    MOSUNNY   65  59  81 CALM      30.14R
PETERSBURG*    MOSUNNY   66  62  85 CALM      30.17F

$$

VAZ036>039-050-231500-
CENTRAL FOOTHILLS

CITY           SKY/WX    TMP DP  RH WIND       PRES   REMARKS
CHARLOTTESVILL SUNNY     73  62  68 N3        30.12R
CULPEPER*      SUNNY     74  62  66 N6        30.12S
ORANGE*        SUNNY     70  59  68 CALM      30.12R
GORDONSVILLE*  SUNNY     73  59  60 N10       30.11R
WARRENTON*     SUNNY     76  56  48 N6        30.11S

$$

VAZ055>057-231500-
NORTH AND CENTRAL PIEDMONT

CITY           SKY/WX    TMP DP  RH WIND       PRES   REMARKS
FREDERICKSBRG* SUNNY     73  60  63 N6        30.09S
STAFFORD*      SUNNY     74  62  66 N6        30.14R

$$

NCZ024-NYZ072-PAZ021-071-VAZ022-071-231500-
OTHER REGIONAL OBSERVATIONS

CITY           SKY/WX    TMP DP  RH WIND       PRES   REMARKS
NEW YORK CITY  SUNNY     75  56  51 VRB3      30.08R
PHILADELPHIA   MOSUNNY   78  55  44 N12       30.07R
PITTSBURGH     MOSUNNY   69  58  67 VRB3      30.17R
ROANOKE        SUNNY     74  63  68 N10       30.15R
RICHMOND       MOSUNNY   75  63  66 NE8       30.08R
RALEIGH        MOSUNNY   76  68  76 N5        30.08S

$$

ANZ530>537-231500-
MARINE OBSERVATIONS

STATION/POSITION TIME  TEMP    WIND        PRES
                       AIR SEA DIR/SP/G
                 (UTC) (F)     (DEG/KT/KT) (MB)
THOMAS PT LIGHT  1400   73 75  350/  9/ 10   N/A
BALT KEY BRIDGE  1336   73     290/  6/  6 1018.6R
COVE POINT       1336   72     350/ 10/ 12 1018.9R
LEWISETTA        1336   74 77   10/  5/  7 1018.0R
SOLOMONS ISLAND  1336   71 76  320/  6/  8 1017.9R
PINEY POINT      1342          330/  7/  8   N/A

$$





USA.gov is the U.S. government's official web portal to all federal, state and local government web resources and services.